Regional Weather Roundup
Issued by NWS Newport/Morehead, NC

Current Version | Previous Version | Graphics & Text | Print | Product List | Glossary Off
Versions: 1 2 3 4 5 6 7 8 9 10 11 12 13 14 15 16 17 18 19 20 21 22 23 24 25 26 27 28 29 30 31 32 33 34 35 36 37 38 39 40 41 42 43 44 45 46 47 48 49 50

215
ASUS42 KMHX 270025
RWRMHX
WEATHER ROUNDUP FOR EASTERN NORTH CAROLINA
NATIONAL WEATHER SERVICE NEWPORT/MOREHEAD CITY NC
800 PM EDT MON JUN 26 2017

NOTE: "FAIR" INDICATES FEW OR NO CLOUDS BELOW 12,000 FEET
WITH NO SIGNIFICANT WEATHER AND/OR OBSTRUCTIONS TO VISIBILITY

NCZ015>017-031-032-045>047-102-103-270100-
NORTH COAST

CITY           SKY/WX    TMP DP  RH WIND       PRES   REMARKS
EDENTON        CLEAR     77  62  59 CALM      30.03S
ELIZABETH CITY CLEAR     77  57  50 SE6       30.02S
KITTY HAWK     CLEAR     73  62  69 E3        30.02S
MANTEO         CLEAR     74  59  59 E5        30.03S

$$

NCZ045>047-081-094-103-104-270100-
CENTRAL COAST

CITY           SKY/WX    TMP DP  RH WIND       PRES   REMARKS
FRISCO         NOT AVBL

$$

NCZ095-097-098-100-101-270100-
SOUTHERN COAST

CITY           SKY/WX    TMP DP  RH WIND       PRES   REMARKS
BEAUFORT       PTCLDY    78  68  71 CALM      30.02S
CEDAR ISLAND   NOT AVBL
JACKSONVILLE   CLEAR     78  69  73 S5        30.02S
PINEY ISLAND   CLEAR    N/A N/A N/A E3        30.02S
WILMINGTON     CLEAR     79  65  62 SE5       30.03S


$$

NCZ011>013-027>030-043-044-078>080-089-090>093-098-270100-
COASTAL PLAIN

CITY           SKY/WX    TMP DP  RH WIND       PRES   REMARKS
AHOSKIE          N/A     72  64  75 CALM      30.03S
CLINTON        CLEAR     78  65  63 CALM      30.03S
ELIZABETHTOWN  NOT AVBL
GOLDSBORO      CLEAR     82  52  35 W3        30.01S
GREENVILLE     CLEAR     77  61  57 CALM      30.04S
HAVELOCK       PTCLDY    80  63  55 E5        30.03S
KENANSVILLE    CLEAR     73  64  73 CALM      30.03S
KINSTON        CLEAR     77  61  57 CALM      30.03S
NEW BERN       CLEAR     77  64  64 SE5       30.03F
RICHLANDS      CLEAR     76  65  68 CALM      30.03S
ROCKY MOUNT    CLEAR     76  62  62 CALM      30.02F
WASHINGTON     CLEAR    N/A N/A N/A SE5       30.03R
WHITEVILLE     CLEAR     77  63  61 CALM      30.03S

$$

AMZ130-135-150-152-154-156-158-170-250-252-270-ANZ085-086-088-633-658-670-270100-
MARINE OBSERVATIONS

STATION/POSITION TIME  TEMP    WIND        PRES    WAVE   SWELL
                       AIR SEA DIR/SP/G            HT/PER HT/PER
                 (UTC) (F)     (DEG/KT/KT) (MB)    (FT/S) (FT/S)
CHESAPEAKE LIGHT NOT AVBL
64 E VA BEACH    2350   75 76   90/  6/  6 1017.4    1/ 8   2/ 8
DUCK             0000   74 74  110/  6/  7 1016.4
2 E DUCK         NOT AVBL
OREGON INLET     0000   74 77   50/  5/  7 1016.8
13E OREGON INLT  2348      75                N/A     2/ 8   2/ 8
HATTERAS CG      0000   78 78  120/  2/  3 1016.7
DIAMOND BUOY     2350   78 81  240/  4/  6 1016.6    2/ 8   2/ 8
CAPE LOOKOUT     0000   77      80/  3/  4 1016.3
BEAUFORT LAB     0000   78 79  100/  3/  5 1016.1
30 SE NEW RVR IN 0008   77 81   40/  4/  6 1016.6
30 SE NEW RVR IN 2343      81                N/A     2/ 8
27 SE WRIGHTSVLE 0008   77 81   40/  4/  8 1016.3
5 SE WRIGHTSVLE  0008   78 80  100/  4/  8 1016.5
225 S CAPE HAT   2350   78 80   90/ 10/ 12 1016.8    3/ 6   2/ 6
41 SE CHARLESTON 0010   78 81   50/ 10/ 12 1016.5

$$




USA.gov is the U.S. government's official web portal to all federal, state and local government web resources and services.